Preston, MN

4:31 AM CDT on May 26, 2018 (GMT -0500)
Preston

Weather History for KFKA - October, 2012

Change the Weather History Date:

Monday, October 15, 2012

  Actual Average (KRST) Record (KRST)
Temperature  
Mean Temperature 52 °F -  
Max Temperature 63 °F 55 °F 84 °F (1953)
Min Temperature 40 °F 36 °F 16 °F (1937)
Degree Days  
Heating Degree Days 14    
Growing Degree Days 2 (Base 50)    
Moisture  
Dew Point 37 °F    
Average Humidity 59    
Maximum Humidity 79    
Minimum Humidity 34    
Precipitation  
Precipitation 0.00 in - - ()
Sea Level Pressure  
Sea Level Pressure 29.91 in    
Wind  
Wind Speed 6 mph (WSW)    
Max Wind Speed 9 mph    
Max Gust Speed -    
Visibility 10 miles    
Events      
Averages and records for this station are not official NWS values.
T = Trace of Precipitation, MM = Missing Value Source: NWS Daily Summary

Daily Weather History Graph

Daily Weather History Graph

Search for Another Location

Airport or City:

Astronomy

Oct. 15, 2012 Rise Set
Actual Time 7:23 AM CDT 6:24 PM CDT
Civil Twilight 6:54 AM CDT 6:53 PM CDT
Nautical Twilight 6:21 AM CDT 7:26 PM CDT
Astronomical Twilight 5:48 AM CDT 7:59 PM CDT
Moon 7:36 AM CDT (10/15) 6:21 PM CDT (10/15)
Length of Visible Light 11h 58m
Length of Day
11h 00m
New Moon, 0% of the Moon is Illuminated
Oct 15
New Moon
Oct 21
First Quarter
Oct 29
Full
Nov 6
Last Quarter
Nov 13
New

Hourly Weather History & Observations

Time (CDT) Temp. Windchill Dew Point Humidity Pressure Visibility Wind Dir Wind Speed Gust Speed Precip Events Conditions
12:10 AM 46.4 °F 42.9 °F 36.5 °F 68% 29.87 in 10.0 mi WNW 6.9 mph - N/A   Overcast
12:50 AM 47.8 °F - 37.2 °F 67% 29.87 in 10.0 mi WNW 8.1 mph - N/A   Overcast
1:10 AM 48.2 °F - 37.6 °F 67% 29.87 in 10.0 mi WNW 6.9 mph - N/A   Overcast
1:31 AM 48.2 °F - 38.3 °F 69% 29.88 in 10.0 mi WNW 6.9 mph - N/A   Overcast
1:50 AM 48.2 °F - 39.2 °F 71% 29.88 in 10.0 mi WNW 6.9 mph - N/A   Overcast
2:10 AM 48.2 °F - 39.2 °F 71% 29.88 in 10.0 mi WNW 8.1 mph - N/A   Overcast
2:50 AM 46.9 °F - 38.7 °F 73% 29.89 in 10.0 mi NW 9.2 mph - N/A   Scattered Clouds
3:10 AM 45.9 °F 41.2 °F 38.3 °F 75% 29.88 in 10.0 mi NW 9.2 mph - N/A   Scattered Clouds
3:30 AM 45.5 °F 40.8 °F 37.9 °F 75% 29.89 in 10.0 mi WNW 9.2 mph - N/A   Clear
3:50 AM 44.8 °F 39.9 °F 37.8 °F 76% 29.89 in 10.0 mi WNW 9.2 mph - N/A   Clear
4:10 AM 44.2 °F 39.2 °F 37.4 °F 77% 29.89 in 10.0 mi WNW 9.2 mph - N/A   Clear
4:50 AM 43.3 °F 38.6 °F 36.7 °F 77% 29.90 in 10.0 mi WNW 8.1 mph - N/A   Clear
5:10 AM 43.3 °F 38.6 °F 36.7 °F 77% 29.90 in 10.0 mi WNW 8.1 mph - N/A   Clear
5:30 AM 42.8 °F 38.0 °F 36.1 °F 77% 29.91 in 10.0 mi WNW 8.1 mph - N/A   Clear
5:50 AM 42.1 °F 37.1 °F 35.6 °F 78% 29.91 in 10.0 mi WNW 8.1 mph - N/A   Clear
6:10 AM 41.2 °F 36.6 °F 34.7 °F 78% 29.92 in 10.0 mi NW 6.9 mph - N/A   Clear
6:30 AM 40.6 °F 36.0 °F 34.7 °F 79% 29.92 in 10.0 mi WNW 6.9 mph - N/A   Clear
7:10 AM 40.1 °F 38.0 °F 34.0 °F 79% 29.92 in 10.0 mi NW 3.5 mph - N/A   Clear
7:30 AM 40.5 °F 37.3 °F 34.2 °F 78% 29.93 in 10.0 mi NW 4.6 mph - N/A   Clear
7:50 AM 40.1 °F 36.9 °F 33.8 °F 78% 29.93 in 10.0 mi WNW 4.6 mph - N/A   Clear
8:10 AM 41.0 °F 38.0 °F 34.5 °F 78% 29.94 in 10.0 mi WNW 4.6 mph - N/A   Clear
8:30 AM 42.8 °F 38.6 °F 35.6 °F 76% 29.94 in 10.0 mi WNW 6.9 mph - N/A   Clear
8:50 AM 44.4 °F 42.0 °F 36.5 °F 74% 29.95 in 10.0 mi NNW 4.6 mph - N/A   Clear
9:10 AM 46.4 °F 44.3 °F 36.3 °F 68% 29.95 in 10.0 mi NNW 4.6 mph - N/A   Clear
9:30 AM 48.0 °F - 37.6 °F 67% 29.96 in 10.0 mi WNW 5.8 mph - N/A   Clear
9:50 AM 49.6 °F - 38.1 °F 65% 29.96 in 10.0 mi West 5.8 mph - N/A   Clear
10:10 AM 50.5 °F - 38.1 °F 62% 29.95 in 10.0 mi Calm Calm - N/A   Clear
10:30 AM 52.7 °F - 39.2 °F 60% 29.96 in 10.0 mi WNW 4.6 mph - N/A   Clear
10:50 AM 54.5 °F - 39.9 °F 58% 29.96 in 10.0 mi West 4.6 mph - N/A   Clear
11:10 AM 55.8 °F - 39.4 °F 54% 29.97 in 10.0 mi WSW 5.8 mph - N/A   Clear
11:50 AM 57.6 °F - 37.0 °F 46% 29.96 in 10.0 mi NW 6.9 mph - N/A   Clear
12:10 PM 58.1 °F - 37.0 °F 45% 29.97 in 10.0 mi NNW 8.1 mph - N/A   Clear
12:30 PM 59.0 °F - 36.5 °F 43% 29.97 in 10.0 mi West 3.5 mph - N/A   Clear
1:10 PM 60.3 °F - 35.4 °F 39% 29.95 in 10.0 mi West 4.6 mph - N/A   Clear
1:30 PM 60.8 °F - 36.3 °F 40% 29.94 in 10.0 mi NNW 6.9 mph - N/A   Clear
1:50 PM 61.0 °F - 35.1 °F 38% 29.94 in 10.0 mi NW 5.8 mph - N/A   Clear
2:30 PM 60.4 °F - 34.2 °F 37% 29.92 in 10.0 mi Calm Calm - N/A   Clear
2:50 PM 61.5 °F - 34.5 °F 36% 29.92 in 10.0 mi Calm Calm - N/A   Clear
3:10 PM 61.7 °F - 34.3 °F 36% 29.91 in 10.0 mi Calm Calm - N/A   Clear
3:30 PM 62.4 °F - 34.7 °F 36% 29.91 in 10.0 mi Calm Calm - N/A   Clear
3:50 PM 63.3 °F - 34.7 °F 34% 29.90 in 10.0 mi SW 3.5 mph - N/A   Clear
4:10 PM 62.4 °F - 34.2 °F 35% 29.90 in 10.0 mi WSW 8.1 mph - N/A   Clear
4:30 PM 61.9 °F - 34.7 °F 36% 29.90 in 10.0 mi Calm Calm - N/A   Clear
4:50 PM 62.8 °F - 35.6 °F 36% 29.90 in 10.0 mi SSE 6.9 mph - N/A   Clear
5:10 PM 62.1 °F - 36.1 °F 38% 29.90 in 10.0 mi South 6.9 mph - N/A   Clear
5:30 PM 61.2 °F - 36.3 °F 40% 29.89 in 10.0 mi South 4.6 mph - N/A   Clear
5:50 PM 59.9 °F - 36.9 °F 42% 29.89 in 10.0 mi South 5.8 mph - N/A   Clear
6:10 PM 58.3 °F - 36.7 °F 45% 29.89 in 10.0 mi South 4.6 mph - N/A   Clear
6:30 PM 57.9 °F - 36.7 °F 45% 29.89 in 10.0 mi South 4.6 mph - N/A   Clear
6:50 PM 56.5 °F - 36.9 °F 48% 29.89 in 10.0 mi SSE 4.6 mph - N/A   Clear
7:10 PM 55.4 °F - 37.0 °F 50% 29.88 in 10.0 mi SSE 3.5 mph - N/A   Clear
7:30 PM 55.4 °F - 37.4 °F 51% 29.89 in 10.0 mi South 4.6 mph - N/A   Scattered Clouds
7:50 PM 53.8 °F - 38.1 °F 55% 29.88 in 10.0 mi South 5.8 mph - N/A   Mostly Cloudy
8:10 PM 54.0 °F - 38.3 °F 55% 29.89 in 10.0 mi South 5.8 mph - N/A   Scattered Clouds
8:30 PM 53.8 °F - 38.3 °F 56% 29.88 in 10.0 mi South 5.8 mph - N/A   Scattered Clouds
8:50 PM 53.8 °F - 38.8 °F 57% 29.87 in 10.0 mi SSE 4.6 mph - N/A   Scattered Clouds
9:10 PM 53.6 °F - 39.0 °F 58% 29.87 in 10.0 mi SSE 3.5 mph - N/A   Clear
9:30 PM 53.4 °F - 39.6 °F 59% 29.87 in 10.0 mi South 4.6 mph - N/A   Clear
9:50 PM 53.6 °F - 40.1 °F 60% 29.87 in 10.0 mi South 6.9 mph - N/A   Scattered Clouds
10:10 PM 53.8 °F - 40.1 °F 60% 29.87 in 10.0 mi South 4.6 mph - N/A   Mostly Cloudy
10:30 PM 54.0 °F - 40.3 °F 60% 29.87 in 10.0 mi South 6.9 mph - N/A   Overcast
10:50 PM 54.0 °F - 40.1 °F 59% 29.86 in 10.0 mi South 8.1 mph - N/A   Scattered Clouds
11:10 PM 54.0 °F - 40.3 °F 60% 29.86 in 10.0 mi South 6.9 mph - N/A   Clear
11:30 PM 53.8 °F - 40.5 °F 61% 29.85 in 10.0 mi South 8.1 mph - N/A   Clear
11:50 PM 53.1 °F - 40.5 °F 62% 29.84 in 10.0 mi South 8.1 mph - N/A   Clear